Weather History for KJHW - April, 2012

Change the Weather History Date:

Wednesday, April 4, 2012

  Actual Average Record
Temperature  
Mean Temperature 44 °F -  
Max Temperature 51 °F 53 °F 72 °F (1981)
Min Temperature 37 °F 30 °F 15 °F (1982)
Degree Days  
Heating Degree Days 21    
Moisture  
Dew Point 29 °F    
Average Humidity 54    
Maximum Humidity 75    
Minimum Humidity 32    
Precipitation  
Precipitation 0.00 in - - ()
Sea Level Pressure  
Sea Level Pressure 29.80 in    
Wind  
Wind Speed 8 mph (NW)    
Max Wind Speed 23 mph    
Max Gust Speed 29 mph    
Visibility 10 miles    
Events      
Averages and records for this station are not official NWS values.
T = Trace of Precipitation, MM = Missing Value Source: NWS Daily Summary

Daily Weather History Graph

Daily Weather History Graph

Search for Another Location

Airport or City:

Trip Planner

Search our weather history database for the weather conditions in past years. The results will help you decide how hot, cold, wet, or windy it might be!

Date:

Astronomy

Apr. 04, 2012 Rise Set
Actual Time 6:53 AM EDT 7:46 PM EDT
Civil Twilight 6:25 AM EDT 8:15 PM EDT
Nautical Twilight 5:51 AM EDT 8:49 PM EDT
Astronomical Twilight 5:16 AM EDT 9:24 PM EDT
Moon 5:36 PM EDT (4/4) 5:17 AM EDT (4/4)
Length of Visible Light 13h 49m
Length of Day
12h 52m
Waxing Gibbous, 93% of the Moon is Illuminated
Apr 4
Waxing Gibbous
Apr 6
Full
Apr 13
Last Quarter
Apr 21
New
Apr 29
First Quarter

Hourly Weather History & Observations

Time (EDT) Temp. Windchill Dew Point Humidity Pressure Visibility Wind Dir Wind Speed Gust Speed Precip Events Conditions
12:15 AM 46.4 °F 42.4 °F 17.6 °F 32% 29.84 in 10.0 mi NW 8.1 mph - N/A   Overcast
12:35 AM 46.4 °F 42.9 °F 21.2 °F 37% 29.83 in 10.0 mi NW 6.9 mph - N/A   Overcast
12:55 AM 46.4 °F 43.5 °F 24.8 °F 43% 29.84 in 10.0 mi NW 5.8 mph - N/A   Overcast
1:15 AM 46.4 °F 43.5 °F 26.6 °F 46% 29.84 in 10.0 mi NW 5.8 mph - N/A   Overcast
1:35 AM 44.6 °F 43.1 °F 24.8 °F 46% 29.84 in 10.0 mi WNW 3.5 mph - N/A   Overcast
1:55 AM 44.6 °F 43.1 °F 26.6 °F 49% 29.83 in 10.0 mi NW 3.5 mph - N/A   Overcast
2:35 AM 42.8 °F 38.0 °F 24.8 °F 49% 29.83 in 10.0 mi NW 8.1 mph - N/A   Partly Cloudy
2:55 AM 42.8 °F 38.6 °F 24.8 °F 49% 29.82 in 10.0 mi WNW 6.9 mph - N/A   Clear
3:15 AM 42.8 °F 38.6 °F 26.6 °F 53% 29.81 in 10.0 mi NW 6.9 mph - N/A   Clear
3:35 AM 42.8 °F 41.1 °F 26.6 °F 53% 29.81 in 10.0 mi NNW 3.5 mph - N/A   Clear
3:55 AM 42.8 °F 39.3 °F 28.4 °F 57% 29.81 in 10.0 mi North 5.8 mph - N/A   Clear
4:15 AM 41.0 °F 38.0 °F 28.4 °F 61% 29.81 in 10.0 mi NNW 4.6 mph - N/A   Clear
4:35 AM 39.2 °F 34.2 °F 28.4 °F 65% 29.80 in 10.0 mi NW 6.9 mph - N/A   Clear
4:55 AM 39.2 °F 35.0 °F 30.2 °F 70% 29.81 in 10.0 mi NNW 5.8 mph - N/A   Clear
5:15 AM 39.2 °F 35.9 °F 30.2 °F 70% 29.81 in 10.0 mi NNW 4.6 mph - N/A   Scattered Clouds
5:35 AM 39.2 °F 35.0 °F 30.2 °F 70% 29.80 in 10.0 mi NNW 5.8 mph - N/A   Overcast
6:15 AM 37.4 °F 34.9 °F 28.4 °F 70% 29.80 in 10.0 mi NNW 3.5 mph - N/A   Clear
6:35 AM 37.4 °F 32.8 °F 28.4 °F 70% 29.81 in 10.0 mi NW 5.8 mph - N/A   Clear
6:55 AM 37.4 °F 34.9 °F 28.4 °F 70% 29.80 in 10.0 mi NW 3.5 mph - N/A   Clear
7:15 AM 37.4 °F 32.8 °F 30.2 °F 75% 29.81 in 10.0 mi NNW 5.8 mph - N/A   Clear
7:35 AM 37.4 °F 32.1 °F 30.2 °F 75% 29.81 in 10.0 mi NNW 6.9 mph - N/A   Clear
7:55 AM 37.4 °F 32.1 °F 30.2 °F 75% 29.82 in 10.0 mi NNW 6.9 mph - N/A   Clear
8:15 AM 37.4 °F 30.8 °F 30.2 °F 75% 29.82 in 10.0 mi NNW 9.2 mph - N/A   Clear
8:55 AM 39.2 °F 34.2 °F 30.2 °F 70% 29.83 in 10.0 mi North 6.9 mph - N/A   Clear
9:15 AM 41.0 °F 38.0 °F 30.2 °F 65% 29.82 in 10.0 mi WNW 4.6 mph - N/A   Clear
9:35 AM 42.8 °F 38.6 °F 32.0 °F 66% 29.82 in 10.0 mi West 6.9 mph - N/A   Clear
9:55 AM 44.6 °F 40.7 °F 33.8 °F 66% 29.82 in 10.0 mi West 6.9 mph - N/A   Clear
10:15 AM 44.6 °F 40.7 °F 33.8 °F 66% 29.82 in 10.0 mi WNW 6.9 mph - N/A   Clear
10:35 AM 46.4 °F 41.9 °F 33.8 °F 62% 29.82 in 10.0 mi WNW 9.2 mph - N/A   Clear
11:15 AM 48.2 °F - 33.8 °F 58% 29.82 in 10.0 mi NW 6.9 mph - N/A   Clear
11:35 AM 48.2 °F - 30.2 °F 50% 29.82 in 10.0 mi NW 10.4 mph - N/A   Clear
11:55 AM 48.2 °F - 30.2 °F 50% 29.81 in 10.0 mi WNW 10.4 mph 17.3 mph N/A   Clear
12:15 PM 50.0 °F - 30.2 °F 47% 29.80 in 10.0 mi West 12.7 mph 19.6 mph N/A   Clear
12:35 PM 50.0 °F - 33.8 °F 54% 29.79 in 10.0 mi West 12.7 mph 21.9 mph N/A   Clear
12:55 PM 50.0 °F - 32.0 °F 50% 29.79 in 10.0 mi West 12.7 mph 18.4 mph N/A   Clear
1:15 PM 50.0 °F - 30.2 °F 47% 29.78 in 10.0 mi West 15.0 mph 20.7 mph N/A   Clear
1:35 PM 51.8 °F - 30.2 °F 44% 29.78 in 10.0 mi WNW 15.0 mph 24.2 mph N/A   Clear
1:55 PM 51.8 °F - 30.2 °F 44% 29.78 in 10.0 mi WNW 15.0 mph 25.3 mph N/A   Clear
2:15 PM 51.8 °F - 30.2 °F 44% 29.78 in 10.0 mi NW 15.0 mph 23.0 mph N/A   Clear
2:35 PM 51.8 °F - 30.2 °F 44% 29.78 in 10.0 mi NW 17.3 mph 25.3 mph N/A   Partly Cloudy
2:55 PM 51.8 °F - 30.2 °F 44% 29.79 in 10.0 mi NW 13.8 mph 25.3 mph N/A   Mostly Cloudy
3:15 PM 51.8 °F - 30.2 °F 44% 29.79 in 10.0 mi WNW 16.1 mph 28.8 mph N/A   Mostly Cloudy
3:35 PM 51.8 °F - 30.2 °F 44% 29.78 in 10.0 mi NW 23.0 mph 28.8 mph N/A   Mostly Cloudy
3:55 PM 51.8 °F - 30.2 °F 44% 29.79 in 10.0 mi NW 16.1 mph 28.8 mph N/A   Mostly Cloudy
4:15 PM 51.8 °F - 30.2 °F 44% 29.78 in 10.0 mi NW 19.6 mph 26.5 mph N/A   Overcast
4:35 PM 48.2 °F - 28.4 °F 46% 29.78 in 10.0 mi NW 17.3 mph 27.6 mph N/A   Overcast
4:55 PM 50.0 °F - 30.2 °F 47% 29.77 in 10.0 mi NNW 20.7 mph 26.5 mph N/A   Mostly Cloudy
5:15 PM 48.2 °F - 28.4 °F 46% 29.78 in 10.0 mi NW 13.8 mph - N/A   Mostly Cloudy
5:35 PM 48.2 °F - 28.4 °F 46% 29.77 in 10.0 mi NW 15.0 mph 24.2 mph N/A   Overcast
5:55 PM 48.2 °F - 28.4 °F 46% 29.77 in 10.0 mi NW 13.8 mph 20.7 mph N/A   Overcast
6:15 PM 46.4 °F 40.1 °F 30.2 °F 53% 29.78 in 10.0 mi NNW 15.0 mph 20.7 mph N/A   Overcast
6:35 PM 46.4 °F 40.7 °F 30.2 °F 53% 29.79 in 10.0 mi NNW 12.7 mph 19.6 mph N/A   Scattered Clouds
6:55 PM 44.6 °F 38.4 °F 30.2 °F 57% 29.80 in 10.0 mi North 12.7 mph - N/A   Clear
7:15 PM 44.6 °F 38.1 °F 24.8 °F 46% 29.80 in 10.0 mi North 13.8 mph - N/A   Clear
7:35 PM 42.8 °F 38.0 °F 23.0 °F 46% 29.81 in 10.0 mi North 8.1 mph 17.3 mph N/A   Clear
7:55 PM 42.8 °F 37.5 °F 21.2 °F 42% 29.81 in 10.0 mi North 9.2 mph - N/A   Clear
8:15 PM 41.0 °F 35.8 °F 21.2 °F 45% 29.82 in 10.0 mi North 8.1 mph - N/A   Clear
8:35 PM 39.2 °F 34.2 °F 21.2 °F 49% 29.83 in 10.0 mi North 6.9 mph - N/A   Clear
8:55 PM 39.2 °F 35.9 °F 21.2 °F 49% 29.84 in 10.0 mi North 4.6 mph - N/A   Clear
9:15 PM 39.2 °F 35.0 °F 21.2 °F 49% 29.84 in 10.0 mi North 5.8 mph - N/A   Clear
9:35 PM 39.2 °F 35.0 °F 21.2 °F 49% 29.85 in 10.0 mi North 5.8 mph - N/A   Clear
9:55 PM 39.2 °F 35.9 °F 21.2 °F 49% 29.85 in 10.0 mi North 4.6 mph - N/A   Clear
10:15 PM 37.4 °F 32.8 °F 21.2 °F 52% 29.84 in 10.0 mi North 5.8 mph - N/A   Clear
10:35 PM 37.4 °F 33.8 °F 21.2 °F 52% 29.84 in 10.0 mi North 4.6 mph - N/A   Clear
10:55 PM 37.4 °F 32.1 °F 21.2 °F 52% 29.84 in 10.0 mi North 6.9 mph - N/A   Clear
11:15 PM 37.4 °F 32.8 °F 21.2 °F 52% 29.84 in 10.0 mi North 5.8 mph - N/A   Clear
11:35 PM 37.4 °F 32.8 °F 21.2 °F 52% 29.85 in 10.0 mi North 5.8 mph - N/A   Clear
11:55 PM 37.4 °F 31.4 °F 21.2 °F 52% 29.85 in 10.0 mi North 8.1 mph - N/A   Clear